Time,TemperatureF,DewpointF,PressureIn,WindDirection,WindDirectionDegrees,WindSpeedMPH,WindSpeedGustMPH,Humidity,HourlyPrecipIn,Conditions,Clouds,dailyrainin,SoftwareType,DateUTC
2013-01-30 00:01:00,31.9,30.0,29.64,NNW,346,13.0,20.0,91,0.00,,,0.02,weatherlink.com 1.10,2013-01-30 06:01:00,
2013-01-30 00:16:00,31.7,29.0,29.62,North,5,10.0,19.0,90,0.00,,,0.02,weatherlink.com 1.10,2013-01-30 06:16:00,
2013-01-30 00:31:00,31.6,29.0,29.61,NNW,342,17.0,21.0,91,0.00,,,0.00,weatherlink.com 1.10,2013-01-30 06:31:00,
2013-01-30 00:46:00,31.6,29.0,29.62,North,351,12.0,20.0,91,0.00,,,0.00,weatherlink.com 1.10,2013-01-30 06:46:00,
2013-01-30 01:01:00,31.6,29.0,29.61,North,5,12.0,21.0,91,0.00,,,0.00,weatherlink.com 1.10,2013-01-30 07:01:00,
2013-01-30 01:16:00,31.3,29.0,29.60,NNW,339,14.0,22.0,91,0.00,,,0.00,weatherlink.com 1.10,2013-01-30 07:16:00,
2013-01-30 01:31:00,31.0,29.0,29.61,NNW,348,15.0,20.0,91,0.00,,,0.00,weatherlink.com 1.10,2013-01-30 07:31:00,
2013-01-30 01:46:00,30.9,28.0,29.60,NNW,336,14.0,21.0,90,0.00,,,0.00,weatherlink.com 1.10,2013-01-30 07:46:00,
2013-01-30 02:01:00,30.9,28.0,29.61,NNW,335,19.0,22.0,89,0.00,,,0.00,weatherlink.com 1.10,2013-01-30 08:01:00,
2013-01-30 02:16:00,30.8,28.0,29.62,NNW,327,11.0,23.0,89,0.00,,,0.00,weatherlink.com 1.10,2013-01-30 08:16:00,
2013-01-30 02:31:00,30.6,28.0,29.63,NNW,345,11.0,24.0,90,0.00,,,0.00,weatherlink.com 1.10,2013-01-30 08:31:00,
2013-01-30 02:46:00,30.3,28.0,29.62,North,350,15.0,21.0,90,0.00,,,0.00,weatherlink.com 1.10,2013-01-30 08:46:00,
2013-01-30 03:01:00,29.9,27.0,29.59,NNW,344,20.0,23.0,90,0.00,,,0.00,weatherlink.com 1.10,2013-01-30 09:01:00,
2013-01-30 03:17:00,29.3,27.0,29.57,NNW,337,19.0,25.0,90,0.00,,,0.00,weatherlink.com 1.10,2013-01-30 09:17:00,
2013-01-30 03:32:00,28.9,26.0,29.59,NNW,338,13.0,26.0,89,0.00,,,0.00,weatherlink.com 1.10,2013-01-30 09:32:00,
2013-01-30 03:47:00,28.6,26.0,29.58,NNW,331,16.0,26.0,88,0.00,,,0.00,weatherlink.com 1.10,2013-01-30 09:47:00,
2013-01-30 04:02:00,28.4,25.0,29.60,NNW,332,22.0,29.0,87,0.00,,,0.00,weatherlink.com 1.10,2013-01-30 10:02:00,
2013-01-30 04:17:00,28.1,25.0,29.62,NW,317,11.0,26.0,89,0.00,,,0.00,weatherlink.com 1.10,2013-01-30 10:17:00,
2013-01-30 04:32:00,27.6,25.0,29.62,NNW,340,17.0,25.0,90,0.00,,,0.00,weatherlink.com 1.10,2013-01-30 10:32:00,
2013-01-30 04:47:00,27.1,25.0,29.63,NNW,328,13.0,22.0,92,0.00,,,0.00,weatherlink.com 1.10,2013-01-30 10:47:00,
2013-01-30 05:02:00,26.7,25.0,29.63,NW,322,15.0,19.0,93,0.00,,,0.00,weatherlink.com 1.10,2013-01-30 11:02:00,
2013-01-30 05:17:00,26.3,25.0,29.63,NNW,344,13.0,24.0,93,0.00,,,0.00,weatherlink.com 1.10,2013-01-30 11:17:00,
2013-01-30 05:32:00,26.0,25.0,29.63,NNW,342,14.0,20.0,94,0.00,,,0.00,weatherlink.com 1.10,2013-01-30 11:32:00,
2013-01-30 05:47:00,25.9,24.0,29.62,NNW,336,15.0,22.0,94,0.00,,,0.00,weatherlink.com 1.10,2013-01-30 11:47:00,
2013-01-30 06:02:00,25.8,24.0,29.63,NNW,331,11.0,24.0,94,0.00,,,0.00,weatherlink.com 1.10,2013-01-30 12:02:00,
2013-01-30 06:17:00,25.7,24.0,29.65,NNW,328,15.0,22.0,93,0.00,,,0.00,weatherlink.com 1.10,2013-01-30 12:17:00,
2013-01-30 06:32:00,25.6,24.0,29.65,NW,322,12.0,19.0,93,0.00,,,0.00,weatherlink.com 1.10,2013-01-30 12:32:00,
2013-01-30 06:47:00,25.5,24.0,29.66,NNW,329,13.0,19.0,93,0.00,,,0.00,weatherlink.com 1.10,2013-01-30 12:47:00,
2013-01-30 07:02:00,25.5,24.0,29.66,NNW,327,13.0,24.0,92,0.00,,,0.00,weatherlink.com 1.10,2013-01-30 13:02:00,
2013-01-30 07:17:00,25.3,23.0,29.66,NW,320,17.0,22.0,92,0.00,,,0.00,weatherlink.com 1.10,2013-01-30 13:17:00,
2013-01-30 07:32:00,24.9,23.0,29.66,NNW,328,18.0,20.0,93,0.00,,,0.00,weatherlink.com 1.10,2013-01-30 13:32:00,
2013-01-30 07:47:00,23.6,22.0,29.67,NW,311,18.0,24.0,93,0.00,,,0.00,weatherlink.com 1.10,2013-01-30 13:47:00,
2013-01-30 08:02:00,23.4,22.0,29.68,NW,319,19.0,23.0,93,0.00,,,0.00,weatherlink.com 1.10,2013-01-30 14:02:00,
2013-01-30 08:17:00,23.3,22.0,29.69,NW,309,15.0,22.0,93,0.00,,,0.00,weatherlink.com 1.10,2013-01-30 14:17:00,
2013-01-30 08:32:00,23.5,22.0,29.69,NW,323,16.0,24.0,93,0.00,,,0.00,weatherlink.com 1.10,2013-01-30 14:32:00,
2013-01-30 08:47:00,23.3,21.0,29.69,NW,316,19.0,26.0,92,0.00,,,0.00,weatherlink.com 1.10,2013-01-30 14:47:00,
2013-01-30 09:02:00,23.1,21.0,29.70,NW,311,19.0,28.0,92,0.00,,,0.00,weatherlink.com 1.10,2013-01-30 15:02:00,
2013-01-30 09:17:00,22.8,21.0,29.70,NW,317,22.0,29.0,92,0.00,,,0.00,weatherlink.com 1.10,2013-01-30 15:17:00,
2013-01-30 09:32:00,22.1,20.0,29.71,NW,316,21.0,29.0,92,0.00,,,0.00,weatherlink.com 1.10,2013-01-30 15:32:00,
2013-01-30 09:47:00,21.5,20.0,29.72,NW,313,27.0,31.0,92,0.00,,,0.00,weatherlink.com 1.10,2013-01-30 15:47:00,
2013-01-30 10:03:00,20.8,19.0,29.73,NW,313,24.0,31.0,91,0.00,,,0.00,weatherlink.com 1.10,2013-01-30 16:03:00,
2013-01-30 10:18:00,20.5,18.0,29.74,West,279,22.0,34.0,91,0.00,,,0.00,weatherlink.com 1.10,2013-01-30 16:18:00,
2013-01-30 10:33:00,20.6,19.0,29.74,NW,311,25.0,33.0,92,0.00,,,0.00,weatherlink.com 1.10,2013-01-30 16:33:00,
2013-01-30 10:48:00,20.7,19.0,29.75,NW,313,25.0,34.0,91,0.00,,,0.00,weatherlink.com 1.10,2013-01-30 16:48:00,
2013-01-30 11:03:00,21.0,19.0,29.76,NW,313,25.0,32.0,91,0.00,,,0.00,weatherlink.com 1.10,2013-01-30 17:03:00,
2013-01-30 11:18:00,21.2,19.0,29.77,NW,307,24.0,35.0,91,0.00,,,0.00,weatherlink.com 1.10,2013-01-30 17:18:00,
2013-01-30 11:33:00,21.3,19.0,29.77,WNW,300,21.0,33.0,90,0.00,,,0.00,weatherlink.com 1.10,2013-01-30 17:33:00,
2013-01-30 11:48:00,21.7,19.0,29.77,NW,316,24.0,29.0,90,0.00,,,0.00,weatherlink.com 1.10,2013-01-30 17:48:00,
2013-01-30 12:03:00,21.4,19.0,29.77,NW,306,21.0,30.0,90,0.00,,,0.00,weatherlink.com 1.10,2013-01-30 18:03:00,
2013-01-30 12:18:00,22.0,20.0,29.76,NW,304,21.0,29.0,90,0.00,,,0.00,weatherlink.com 1.10,2013-01-30 18:18:00,
2013-01-30 12:33:00,21.5,19.0,29.76,NNW,329,19.0,36.0,90,0.00,,,0.00,weatherlink.com 1.10,2013-01-30 18:33:00,
2013-01-30 12:48:00,22.0,19.0,29.77,WNW,301,20.0,29.0,89,0.00,,,0.00,weatherlink.com 1.10,2013-01-30 18:48:00,
2013-01-30 13:03:00,22.5,20.0,29.76,NW,321,21.0,33.0,89,0.00,,,0.00,weatherlink.com 1.10,2013-01-30 19:03:00,
2013-01-30 13:18:00,22.7,20.0,29.76,NW,313,25.0,29.0,89,0.00,,,0.00,weatherlink.com 1.10,2013-01-30 19:18:00,
2013-01-30 13:33:00,22.7,19.0,29.76,WNW,302,22.0,28.0,87,0.00,,,0.00,weatherlink.com 1.10,2013-01-30 19:33:00,
2013-01-30 13:48:00,22.6,20.0,29.77,WNW,295,23.0,31.0,88,0.00,,,0.00,weatherlink.com 1.10,2013-01-30 19:48:00,
2013-01-30 14:03:00,22.7,20.0,29.77,WNW,302,23.0,29.0,88,0.00,,,0.00,weatherlink.com 1.10,2013-01-30 20:03:00,
2013-01-30 14:18:00,22.6,19.0,29.78,NW,307,21.0,29.0,87,0.00,,,0.00,weatherlink.com 1.10,2013-01-30 20:18:00,
2013-01-30 14:33:00,22.5,20.0,29.78,NW,313,20.0,30.0,88,0.00,,,0.00,weatherlink.com 1.10,2013-01-30 20:33:00,
2013-01-30 14:48:00,22.9,20.0,29.79,NNW,333,20.0,31.0,88,0.00,,,0.00,weatherlink.com 1.10,2013-01-30 20:48:00,
2013-01-30 15:03:00,22.8,20.0,29.80,NNW,331,19.0,28.0,87,0.00,,,0.00,weatherlink.com 1.10,2013-01-30 21:03:00,
2013-01-30 15:18:00,22.6,19.0,29.80,WNW,297,21.0,26.0,87,0.00,,,0.00,weatherlink.com 1.10,2013-01-30 21:18:00,
2013-01-30 15:33:00,22.6,19.0,29.81,WNW,293,21.0,25.0,86,0.00,,,0.00,weatherlink.com 1.10,2013-01-30 21:33:00,
2013-01-30 15:48:00,22.7,18.0,29.81,NW,309,15.0,31.0,83,0.00,,,0.00,weatherlink.com 1.10,2013-01-30 21:48:00,
2013-01-30 16:03:00,22.4,18.0,29.82,NNW,327,21.0,26.0,83,0.00,,,0.00,weatherlink.com 1.10,2013-01-30 22:03:00,
2013-01-30 16:18:00,22.2,18.0,29.82,NW,311,18.0,25.0,83,0.00,,,0.00,weatherlink.com 1.10,2013-01-30 22:18:00,
2013-01-30 16:33:00,22.0,18.0,29.82,NW,315,17.0,22.0,83,0.00,,,0.00,weatherlink.com 1.10,2013-01-30 22:33:00,
2013-01-30 16:48:00,21.5,17.0,29.83,NW,304,18.0,24.0,81,0.00,,,0.00,weatherlink.com 1.10,2013-01-30 22:48:00,
2013-01-30 17:03:00,21.1,16.0,29.84,NW,319,13.0,25.0,80,0.00,,,0.00,weatherlink.com 1.10,2013-01-30 23:03:00,
2013-01-30 17:18:00,21.0,15.0,29.84,NW,315,15.0,22.0,79,0.00,,,0.00,weatherlink.com 1.10,2013-01-30 23:18:00,
2013-01-30 17:33:00,20.5,15.0,29.85,NW,313,12.0,21.0,80,0.00,,,0.00,weatherlink.com 1.10,2013-01-30 23:33:00,
2013-01-30 17:48:00,20.4,15.0,29.85,NW,316,11.0,16.0,80,0.00,,,0.00,weatherlink.com 1.10,2013-01-30 23:48:00,
2013-01-30 18:03:00,20.4,15.0,29.86,NW,313,11.0,16.0,80,0.00,,,0.00,weatherlink.com 1.10,2013-01-31 00:03:00,
2013-01-30 18:18:00,20.9,15.0,29.87,NW,307,13.0,16.0,79,0.00,,,0.00,weatherlink.com 1.10,2013-01-31 00:18:00,
2013-01-30 18:33:00,21.3,16.0,29.88,WNW,293,8.0,15.0,81,0.00,,,0.00,weatherlink.com 1.10,2013-01-31 00:33:00,
2013-01-30 18:48:00,21.2,17.0,29.88,NW,304,8.0,15.0,82,0.00,,,0.00,weatherlink.com 1.10,2013-01-31 00:48:00,
2013-01-30 19:03:00,21.5,17.0,29.88,WNW,289,7.0,11.0,83,0.00,,,0.00,weatherlink.com 1.10,2013-01-31 01:03:00,
2013-01-30 19:18:00,22.2,17.0,29.88,WNW,303,13.0,20.0,80,0.00,,,0.00,weatherlink.com 1.10,2013-01-31 01:18:00,
2013-01-30 19:33:00,22.3,17.0,29.89,WNW,292,18.0,21.0,81,0.00,,,0.00,weatherlink.com 1.10,2013-01-31 01:33:00,
2013-01-30 19:48:00,22.0,17.0,29.89,WNW,295,14.0,20.0,80,0.00,,,0.00,weatherlink.com 1.10,2013-01-31 01:48:00,
2013-01-30 20:03:00,21.6,16.0,29.89,West,273,13.0,18.0,80,0.00,,,0.00,weatherlink.com 1.10,2013-01-31 02:03:00,
2013-01-30 20:18:00,21.3,16.0,29.89,WNW,288,12.0,18.0,79,0.00,,,0.00,weatherlink.com 1.10,2013-01-31 02:18:00,
2013-01-30 20:33:00,20.9,16.0,29.90,West,272,11.0,19.0,80,0.00,,,0.00,weatherlink.com 1.10,2013-01-31 02:33:00,
2013-01-30 20:49:00,20.4,15.0,29.90,West,280,11.0,22.0,80,0.00,,,0.00,weatherlink.com 1.10,2013-01-31 02:49:00,
2013-01-30 21:04:00,20.1,15.0,29.91,West,265,17.0,17.0,79,0.00,,,0.00,weatherlink.com 1.10,2013-01-31 03:04:00,
2013-01-30 21:19:00,20.0,15.0,29.92,WSW,244,10.0,23.0,80,0.00,,,0.00,weatherlink.com 1.10,2013-01-31 03:19:00,
2013-01-30 21:34:00,19.4,14.0,29.92,West,276,13.0,18.0,79,0.00,,,0.00,weatherlink.com 1.10,2013-01-31 03:34:00,
2013-01-30 21:49:00,19.0,14.0,29.92,WNW,294,9.0,19.0,80,0.00,,,0.00,weatherlink.com 1.10,2013-01-31 03:49:00,
2013-01-30 22:04:00,18.4,13.0,29.92,WNW,291,16.0,22.0,79,0.00,,,0.00,weatherlink.com 1.10,2013-01-31 04:04:00,
2013-01-30 22:19:00,17.4,13.0,29.93,West,263,9.0,20.0,82,0.00,,,0.00,weatherlink.com 1.10,2013-01-31 04:19:00,
2013-01-30 22:34:00,16.8,11.0,29.93,West,279,9.0,15.0,79,0.00,,,0.00,weatherlink.com 1.10,2013-01-31 04:34:00,
2013-01-30 22:49:00,16.3,11.0,29.93,West,280,9.0,15.0,80,0.00,,,0.00,weatherlink.com 1.10,2013-01-31 04:49:00,
2013-01-30 23:19:00,15.8,10.0,29.95,West,264,10.0,15.0,79,0.00,,,0.00,weatherlink.com 1.10,2013-01-31 05:19:00,
2013-01-30 23:34:00,15.4,10.0,29.95,West,279,11.0,16.0,79,0.00,,,0.00,weatherlink.com 1.10,2013-01-31 05:34:00,
2013-01-30 23:49:00,14.8,9.0,29.95,West,271,7.0,11.0,79,0.00,,,0.00,weatherlink.com 1.10,2013-01-31 05:49:00,